Location: Couloisy
(49.3996°N, 3.0272°E)
Time: 11:49:51
(UTC+00:00)

Daily predictions for brighter satellites

Satellite Brightness Start Highest point End
(mag) Time Altitude Azimuth Time Altitude Azimuth Time Altitude Azimuth
CSL-04 Debris 4.4 18:58:23 10° SE 19:03:34 54° ENE 19:08:49 10° N
Meteor 1-22 Rocket 4.3 18:58:53 10° S 19:04:28 70° E 19:10:19 10° NNE
Cosmos 1898 Rocket 3.9 19:00:09 10° S 19:05:03 42° ESE 19:09:56 10° NE
CZ-4 R/B 1.8 19:02:14 10° SE 19:05:47 38° ENE 19:09:18 10° N
Resurs 01 Rocket 2.9 19:03:33 10° S 19:07:45 45° W 19:11:58 10° NNW
Okean O Rocket 3.4 19:07:33 10° E 19:10:18 17° ENE 19:13:03 10° NNE
Meteor 1-24 Rocket 3.7 19:08:13 10° N 19:13:41 82° ENE 19:19:18 10° SSE
Cosmos 1538 Rocket 4.0 19:08:49 10° NNW 19:14:00 87° WSW 19:19:09 10° SSE
Cosmos 2333 4.2 19:08:58 10° S 19:14:26 59° ESE 19:19:56 10° NE
Cosmos 372 Rocket 4.0 19:10:40 10° S 19:15:50 67° ESE 19:21:03 10° NNE
CENTAUR R/B 4.4 19:08:06 10° NW 19:16:00 46° WSW 19:24:48 10° S
Cosmos 1680 Rocket 4.2 19:12:33 10° NNW 19:17:25 38° ENE 19:22:15 10° SE
Cosmos 2219 Rocket 2.3 19:14:57 10° S 19:20:18 50° ESE 19:25:42 10° NE
SPOT 5 2.8 19:16:22 10° SSE 19:21:09 84° ENE 19:25:42 10° NNW
CZ-4B R/B 3.6 19:19:53 10° SSE 19:23:26 74° ENE 19:27:10 10° N
Cosmos 2074 Rocket 4.0 19:17:32 10° S 19:23:44 76° E 19:30:00 10° NNE
Meteor 1-31 Rocket 2.5 19:22:36 10° SSE 19:26:05 75° ENE 19:29:38 10° N
Cosmos 1937 Rocket 3.8 19:21:32 10° S 19:26:34 47° ESE 19:31:39 10° NNE
SL-24 R/B - RUBIN 2 4.0 19:27:12 10° NNW 19:31:28 49° NE 19:35:17 14° ESE
Cosmos 923 Rocket 4.1 19:28:14 10° NNW 19:33:34 65° ENE 19:38:48 10° SE
USA 234 3.3 19:28:41 10° ENE 19:35:17 85° SE 19:41:52 10° SW
NOSS 2-3 (E) 4.3 19:32:06 10° NW 19:36:53 61° NE 19:42:20 14° ESE
COSMOS 2428 3.7 19:33:17 10° SSE 19:37:51 25° ESE 19:42:26 10° NE
IRAS Rocket 4.5 19:34:00 10° S 19:39:30 73° WSW 19:45:01 10° NNW
Cosmos 1953 2.8 19:36:35 10° SSW 19:40:06 55° WNW 19:43:40 10° N
Meteor 1-15 Rocket 4.3 19:34:46 10° SSW 19:40:19 87° WNW 19:45:57 10° NNE
PAYLOAD B 4.2 19:35:01 10° SSE 19:40:29 71° ENE 19:45:59 10° NNW
CZ-4B R/B 3.4 19:35:37 10° SSE 19:41:02 60° ENE 19:46:34 10° N
MetOp-B 4.3 19:36:09 10° SSE 19:41:25 60° ENE 19:46:42 10° N
CZ-4B DEB 4.2 19:36:10 10° SSE 19:41:37 81° ENE 19:47:08 10° NNW
CSL-04 Rocket 4.0 19:36:27 10° S 19:41:58 72° WSW 19:47:33 10° NNW
Cosmos 2278 Rocket 3.2 19:38:48 10° NNW 19:43:51 32° NE 19:47:49 15° ESE
Cosmos 1610 Rocket 4.5 19:42:28 10° S 19:48:44 72° E 19:54:59 10° NNE
NOSS 3-2 (C) 4.1 19:41:39 10° NW 19:48:51 85° NE 19:56:23 15° SE
Cosmos 2333 Rocket 3.4 19:43:35 10° SW 19:49:02 47° NW 19:54:31 10° NNE
Cosmos 1703 Rocket 3.5 19:49:31 10° N 19:53:53 87° WSW 19:58:10 10° S
Geosat 3.9 19:49:54 10° NNE 19:54:54 70° ESE 19:59:53 10° SSW
BREEZE-M DEB (TANK) 1.9 19:53:43 10° W 19:56:10 87° N 19:59:33 15° E
Spot 2 Rocket 3.9 19:53:55 17° SE 19:57:25 45° ENE 20:02:12 10° N
Cosmos 1470 Rocket 4.0 19:53:14 10° SSW 19:57:36 66° WNW 20:01:57 10° N
Lacrosse 5 rocket 1.0 19:55:53 10° SSW 19:58:55 39° SE 20:00:41 20° ENE
NOSS 2-3 (D) 4.2 19:54:19 10° NW 19:59:14 78° NE 20:03:53 19° SE
ARIANE 6 FM1 Upper Stage 2.8 19:56:09 10° SW 20:00:17 73° NW 20:04:20 10° NE
ERS-1 Rocket 3.0 19:58:02 10° SSE 20:03:02 86° WSW 20:08:04 10° NNW
Nadezhda 3 Rocket 4.5 19:57:59 10° NNW 20:04:04 62° W 20:10:06 10° S
Cosmos 1933 Rocket 3.5 20:00:41 10° S 20:05:00 69° E 20:09:23 10° NNE
Cosmos 1943 Rocket 2.5 20:04:08 10° NNW 20:09:41 52° NE 20:12:59 24° ESE
Helios 1A Rocket 3.4 20:08:06 10° N 20:11:15 47° WNW 20:14:20 10° SW
Cosmos 2218 Rocket 4.2 20:06:05 12° SSE 20:11:25 47° E 20:17:15 10° NNE
YAOGAN 11 4.4 20:07:45 10° NNE 20:11:46 41° E 20:13:55 23° SSE
Meteor 1-12 Rocket 4.4 20:08:29 10° S 20:14:28 89° E 20:20:32 10° NNE
In-Cosmos 22 Rocket 4.0 20:09:45 10° N 20:15:08 78° ENE 20:19:03 19° SSE
USA 59 Rocket 1.5 20:13:37 10° NNW 20:15:48 17° NNE 20:17:17 14° ENE
MOS 1-B 4.3 20:14:21 20° SSE 20:18:22 69° ENE 20:24:08 10° NNW
Cosmos 1733 Rocket 3.9 20:18:20 28° ESE 20:18:53 29° E 20:22:40 10° NNE
NOSS 3-4 (A) 4.5 20:23:13 20° E 20:23:13 20° E 20:25:59 10° ENE
NOSS 3-4 (C) 4.5 20:23:46 20° E 20:23:46 20° E 20:26:30 10° ENE
CZ-4B R/B 4.1 20:20:21 27° ESE 20:22:13 37° ENE 20:26:36 10° N
SeaSat 1 4.2 20:19:54 14° ENE 20:22:22 21° NE 20:25:58 10° N
Okean-O 2.6 20:20:35 28° SSE 20:22:49 68° ENE 20:27:11 10° N
Cosmos 494 Rocket 3.9 20:18:06 10° NNW 20:23:18 87° WSW 20:26:29 24° SSE
ATLAS 3B R/B 4.0 20:17:15 10° WSW 20:24:42 48° NNW 20:32:19 10° NE
Cosmos 1821 Rocket 4.3 20:22:24 23° SSE 20:25:55 44° E 20:31:52 10° NNE
Cosmos 962 Rocket 4.4 20:20:41 10° S 20:26:57 88° E 20:33:12 10° N
Cosmos 1048 Rocket 4.2 20:22:40 10° NNW 20:27:43 55° ENE 20:29:52 32° SE
Cosmos 2360 Rocket 3.7 20:22:41 10° WSW 20:27:56 39° NW 20:33:14 10° NNE
Timation 2 Rocket 4.2 20:26:56 10° NNW 20:33:07 60° NE 20:36:19 30° ESE
Cosmos 1869 Rocket 3.6 20:30:47 11° SSW 20:34:59 83° WNW 20:39:25 10° N
Cosmos 2322 Rocket 4.0 20:31:03 10° WSW 20:36:03 32° NW 20:41:06 10° NNE
ADEOS 4.2 20:32:48 12° S 20:37:25 53° W 20:42:32 10° NNW
Terra 2.7 20:34:16 12° S 20:38:21 46° W 20:42:54 10° NNW
Aureole 3 3.9 20:35:00 10° N 20:38:58 49° ENE 20:40:03 41° ESE
Meteor 2-21 4.5 20:33:47 10° N 20:39:52 64° ENE 20:42:49 32° SSE
CZ-4 R/B 3.7 20:37:07 10° SW 20:39:56 20° W 20:42:46 10° NW
BREEZE-M DEB (TANK) 4.4 20:39:05 10° SW 20:43:21 69° SSE 21:01:57 10° ENE
Cosmos 2242 Rocket 3.6 20:40:45 10° N 20:45:16 66° ENE 20:46:21 47° SE
Okean O Rocket 1.8 20:43:57 31° S 20:46:00 69° WSW 20:50:21 10° NNW
SL-08 R/B 3.7 20:42:43 10° N 20:47:34 68° WNW 20:52:26 10° SSW
Cosmos 2237 Rocket 2.7 20:47:30 36° ESE 20:47:53 37° ESE 20:53:03 10° NE
Cosmos 1980 4.1 20:47:57 38° SE 20:48:40 40° ESE 20:53:54 10° NE
Cosmos 1025 Rocket 3.9 20:45:33 10° N 20:49:24 32° ENE 20:49:24 32° ENE
Cosmos 1125 Rocket 4.5 20:51:20 29° E 20:51:20 29° E 20:55:05 10° NE
CZ-4B R/B 2.5 20:51:35 69° E 20:51:42 70° ENE 20:55:15 10° N
Cosmos 2322 3.7 20:46:02 10° SSW 20:51:46 88° WNW 20:57:32 10° NNE
ASTEX 1 3.3 20:50:47 43° SSE 20:52:18 71° E 20:57:12 10° N
Cosmos 2292 Rocket 4.4 20:47:37 10° N 20:53:12 43° ENE 20:54:03 40° E
Cosmos 2341 Rocket 4.1 20:47:31 10° SSW 20:53:45 79° W 21:00:06 10° N
Meteor 1-21 Rocket 4.4 20:52:28 10° NNW 20:58:01 67° W 21:01:08 27° S
Cosmos 1400 Rocket 3.8 21:03:02 30° NE 21:03:02 30° NE 21:05:08 10° NNE
USA 186 4.2 21:04:43 14° WNW 21:04:43 14° WNW 21:05:21 10° NW
SPOT 3 Rocket 3.5 21:02:11 46° SSE 21:03:46 84° ENE 21:08:59 10° NNW
Cosmos 2219 Rocket 3.9 20:59:25 10° WSW 21:04:27 34° NW 21:09:32 10° NNE
Meteor 2-21 Rocket 4.3 21:06:48 10° N 21:12:56 78° E 21:14:50 47° SSE
USA 245 3.7 21:17:15 56° SW 21:17:39 60° W 21:22:11 10° NNW
USA 234 4.0 21:11:47 10° ENE 21:18:05 52° NNW 21:24:24 10° W
Cosmos 2369 Rocket 3.5 21:14:40 10° NNW 21:19:25 27° NE 21:20:57 24° ENE
Cosmos 1674 Rocket 3.4 21:15:46 10° N 21:19:57 76° ENE 21:19:57 76° ENE
COSMOS 2428 3.1 21:15:57 10° SW 21:21:38 63° WNW 21:27:21 10° NNE
Helios 1B rocket 4.2 21:23:49 18° NE 21:23:49 18° NE 21:25:17 10° NNE
NOSS 0 Rocket 3.9 21:18:18 10° SSW 21:24:33 88° WNW 21:30:51 10° NNE
Cosmos 1727 Rocket 4.0 21:20:00 10° N 21:26:23 81° W 21:28:33 44° S
Ariane Rocket 2.9 21:26:52 62° S 21:27:41 78° WSW 21:32:45 10° NNW
Cosmos 2278 Rocket 2.6 21:22:41 10° NW 21:28:14 56° WSW 21:29:39 44° SSW
USA 238 DEB 3.9 21:22:13 10° NW 21:29:36 81° SW 21:32:16 46° SSE
USA 238 3.9 21:22:22 10° NW 21:29:46 81° SW 21:32:26 46° SSE
Cosmos 2221 Rocket 3.9 21:26:22 10° N 21:30:11 54° NE 21:30:11 54° NE
CZ-2C R/B 4.3 21:32:30 25° NW 21:32:30 25° NW 21:34:00 10° NNW
Cosmos 1346 Rocket 3.7 21:29:06 10° N 21:31:34 40° N 21:31:34 40° N
Lacrosse 5 rocket 2.9 21:32:34 10° W 21:34:04 22° WNW 21:34:04 22° WNW
Cosmos 1378 Rocket 4.2 21:35:43 10° NNW 21:39:57 47° W 21:40:16 46° WSW
Meteor 2-8 Rocket 4.4 21:47:10 53° SSW 21:48:43 81° W 21:54:49 10° N
Cosmos 1656 Rocket 3.5 21:44:40 10° NNW 21:50:07 73° ENE 21:50:17 73° ENE
Cosmos 1943 Rocket 3.4 21:48:16 10° NW 21:53:10 31° WSW 21:54:29 28° SW
Cosmos 614 Rocket 4.2 21:48:45 10° NNW 21:53:50 57° WSW 21:53:59 57° WSW
SL-16 R/B 3.5 21:58:05 27° ENE 21:58:05 27° ENE 22:01:02 10° NE
SeaSat 1 2.4 21:59:30 79° NNW 21:59:30 79° NNW 22:04:08 10° NNW
Cosmos 2123 Rocket 3.9 21:56:42 10° NNW 22:02:57 78° W 22:03:50 66° SSW
Cosmos 1934 Rocket 3.8 22:03:44 73° S 22:04:24 86° E 22:10:42 10° N
USA 59 Rocket 1.5 22:01:16 10° NW 22:02:49 27° NW 22:02:49 27° NW
NOSS 3-4 (A) 3.3 22:10:29 51° WSW 22:11:48 71° NW 22:17:45 10° NE
NOSS 3-4 (C) 3.3 22:11:02 52° WSW 22:12:18 72° NW 22:18:16 10° NE
Cosmos 2285 Rocket 4.1 22:19:16 61° E 22:19:16 61° E 22:24:57 10° NNE
NOSS 3-1 (C) 4.2 22:19:56 10° NW 22:26:35 61° NE 22:28:44 46° E
Cosmos 1535 Rocket 4.3 22:26:51 78° ENE 22:26:51 78° ENE 22:32:44 10° NNE
ATLAS 5 CENTAUR R/B 4.2 22:26:11 10° N 22:27:53 13° NNE 22:29:34 10° NE
ALOS 2 4.2 22:29:40 29° NNE 22:29:40 29° NNE 22:32:22 10° N
Cosmos 2237 Rocket 3.2 22:29:12 27° WSW 22:31:50 44° NW 22:37:18 10° NNE
Cosmos 1125 Rocket 4.4 22:31:27 41° W 22:32:20 44° WNW 22:37:24 10° NNE
Cosmos 1605 Rocket 3.9 22:32:45 78° NE 22:32:45 78° NE 22:38:33 10° N
Cosmos 2297 3.9 22:32:12 10° NNW 22:37:29 70° NNE 22:37:29 70° NNE
ARIANE 5 R/B 4.0 22:40:11 34° N 22:40:11 34° N 22:42:48 10° N
Cosmos 1975 Rocket 4.4 22:38:41 10° NNW 22:41:32 39° NNW 22:41:32 39° NNW
COSMOS 2455 4.0 22:38:24 10° NNW 22:43:52 34° NE 22:45:15 31° ENE
USA 234 4.1 22:54:17 10° ENE 23:00:29 47° N 23:06:42 10° WNW
Cosmos 2369 Rocket 2.7 22:58:21 10° NNW 23:02:43 52° WNW 23:02:43 52° WNW
NOSS 3-1 (A) 4.2 23:11:02 10° NW 23:17:44 60° NE 23:19:58 45° E
Cosmos 1943 4.1 23:21:35 40° NE 23:21:35 40° NE 23:25:19 10° NE
SJ 16-02 3.3 23:31:04 10° N 23:33:17 26° N 23:33:17 26° N
Cosmos 407 Rocket 4.4 23:30:45 10° NNW 23:34:21 45° NNW 23:34:21 45° NNW
SL-16 R/B 3.0 23:39:53 45° NW 23:39:54 45° NW 23:45:21 10° NNE
ACS3 Solar Sail 3.7 23:36:39 10° NE 23:40:25 17° E 23:40:25 17° E
Cosmos 1802 Rocket 4.2 23:43:35 66° NE 23:43:35 66° NE 23:49:12 10° NNE
CZ-2C R/B 3.2 23:44:18 57° NNE 23:44:18 57° NNE 23:48:53 10° N
Meteor 2-3 Rocket 4.2 23:41:24 10° NNW 23:45:50 57° NNW 23:45:50 57° NNW
Cosmos 1725 Rocket 4.2 23:48:08 65° NE 23:48:08 65° NE 23:53:45 10° NNE
